Theta_e
313 312 312 312 313 312 311 310 311 311 311 312 312 311 311 310 309 306 307 307 307 307 307 308 308 308 308 308 309 310 309 311 316 318 318 315 310 309 310 310 309 309 309 309 311 313 312 312 313 314 314 314 314 315 316 317 317 318 318 318 317 318 319 320 322 321 320 321 321 322 321 322 322 322 321 320 320 319 319 318 319 320 319 320 319 321 329 334
311 311 311 312 312 312 311 310 310 310 311 312 312 311 311 310 309 307 308 307 307 307 308 308 308 308 308 308 309 310 311 314 318 319 316 311 309 309 310 309 309 309 309 310 313 314 313 313 313 314 313 313 315 314 315 316 317 317 319 317 317 320 320 321 321 320 320 321 321 321 320 321 321 320 320 319 319 319 318 318 318 318 318 320 319 320 321 322
309 309 309 310 313 313 311 310 309 310 310 311 312 312 311 310 309 308 308 307 307 307 308 308 308 308 308 308 309 309 313 318 320 318 312 309 309 309 309 309 309 309 310 310 313 314 314 314 315 314 313 314 315 314 314 316 317 317 318 317 318 319 319 320 320 320 320 320 321 320 320 320 320 319 319 319 319 319 318 318 318 318 319 319 319 321 320 325
306 306 306 308 312 313 312 310 309 310 310 312 312 312 311 310 310 309 308 307 306 307 308 308 308 308 307 308 308 309 317 322 319 316 311 308 309 309 309 309 309 310 310 311 313 314 315 316 315 314 313 314 314 314 314 316 317 316 316 316 318 318 318 319 319 319 320 320 320 319 319 319 319 319 318 318 318 318 318 318 318 318 319 319 321 319 324 334
304 304 304 306 309 311 312 310 310 309 310 312 312 312 311 311 311 310 308 306 307 307 308 308 308 308 307 308 308 311 320 321 316 313 310 308 309 309 309 309 310 310 311 313 314 313 314 315 314 313 313 314 315 315 315 316 316 315 316 316 317 318 317 318 318 318 318 319 319 318 318 318 319 319 318 318 317 317 318 318 318 318 318 318 319 318 325 333
303 303 303 303 306 309 311 310 310 309 310 312 312 312 312 312 312 311 308 306 307 307 308 308 308 308 307 308 310 314 319 317 314 312 309 309 309 309 310 310 310 310 311 313 315 313 314 314 313 313 313 314 314 314 314 315 316 315 316 316 316 316 317 317 317 316 316 316 317 317 318 317 317 317 317 317 317 317 317 318 317 317 318 317 318 318 325 333
302 302 302 302 303 307 310 310 310 310 310 312 312 312 312 312 312 312 309 306 307 307 308 308 308 308 307 309 313 319 320 314 311 310 308 310 310 310 310 310 310 311 313 315 315 313 313 313 313 313 313 313 313 314 314 314 315 315 315 315 316 316 316 316 316 316 315 315 316 316 316 316 316 316 316 317 316 317 317 317 317 317 318 317 318 318 324 334
303 302 302 302 302 305 308 310 310 310 311 312 313 312 312 313 313 314 311 307 307 307 308 308 308 308 307 310 315 320 320 313 310 310 310 310 310 311 311 311 312 314 315 316 315 313 313 313 312 313 313 313 313 313 314 314 315 315 314 315 315 315 314 314 314 314 313 314 314 314 314 314 315 315 316 316 316 317 317 317 317 316 317 316 318 318 324 337
304 303 303 303 303 304 307 309 310 310 311 312 312 312 312 313 314 315 312 307 307 308 308 308 308 307 308 313 318 318 317 312 311 311 310 311 311 312 313 313 314 314 314 315 314 313 313 313 313 313 313 313 313 313 313 313 313 314 313 314 314 313 313 313 313 313 313 313 313 312 312 313 314 314 314 315 315 316 316 316 316 316 316 315 319 317 320 337
304 304 304 303 303 304 306 309 310 310 312 312 312 312 313 314 315 316 314 309 307 308 308 308 308 308 311 317 320 318 315 312 312 311 311 312 313 313 313 313 314 314 313 313 313 313 313 313 313 313 313 313 312 313 313 312 312 313 313 313 313 313 313 313 312 312 313 313 312 312 312 312 314 313 313 314 315 315 315 315 315 315 315 316 318 318 327 340
304 304 304 304 303 304 306 309 310 311 312 312 312 312 313 314 315 315 314 310 307 308 308 308 308 308 313 319 318 316 314 313 313 312 312 313 312 313 313 312 313 313 313 312 312 313 313 313 314 313 312 312 312 312 312 312 312 313 313 312 312 312 312 312 312 312 312 313 312 312 312 312 313 313 313 314 315 315 315 315 315 315 315 316 316 316 331 341
303 304 304 304 304 304 306 309 310 311 312 312 312 312 313 315 315 315 314 310 307 308 308 308 308 309 316 320 317 315 313 314 315 314 313 313 313 313 313 313 313 313 314 314 313 313 313 313 313 312 312 312 312 311 312 312 312 313 313 311 312 312 312 312 312 312 312 312 313 313 311 311 313 313 313 314 315 315 315 315 314 315 314 315 316 314 328 340
303 303 304 304 304 304 306 309 310 312 312 313 313 313 314 315 315 315 313 309 308 308 308 308 308 311 318 321 316 315 315 315 315 315 314 313 314 314 313 313 313 313 313 314 315 313 313 313 312 312 313 312 312 312 312 312 312 311 312 311 311 311 311 312 313 313 312 312 313 312 308 309 313 313 314 315 315 315 315 314 314 314 314 315 316 316 326 336
303 303 303 304 304 304 306 309 311 312 313 313 313 314 314 315 315 314 313 311 311 310 310 310 309 313 319 320 315 315 315 315 315 315 315 315 315 315 314 314 313 314 313 313 314 313 313 313 313 312 313 313 312 312 312 312 312 311 311 311 310 308 310 313 313 312 312 311 313 311 306 309 313 314 315 316 315 316 315 315 315 315 317 319 320 320 324 331
303 303 303 304 304 304 306 309 311 313 314 314 314 314 314 315 314 313 313 313 313 312 311 312 312 315 320 318 315 314 314 316 316 315 316 315 316 316 315 315 314 314 314 313 314 314 313 313 313 313 313 312 312 312 311 312 312 311 309 309 309 308 309 313 313 313 312 312 313 311 307 311 317 316 317 317 315 317 315 315 317 318 320 322 323 323 324 328
304 303 303 303 304 304 306 310 312 313 314 315 315 315 314 315 314 313 314 314 314 313 313 315 317 319 320 318 315 314 315 316 316 315 315 314 316 316 316 315 315 314 314 314 314 314 314 313 313 313 314 313 312 311 311 310 310 312 309 307 308 308 309 312 313 313 313 313 313 311 309 312 318 318 317 317 316 316 316 317 319 320 322 323 324 324 325 328
305 303 303 303 304 304 305 310 313 314 314 315 315 316 315 315 314 313 313 314 314 315 315 318 320 320 319 317 315 315 316 316 315 315 315 314 315 315 315 315 315 314 314 315 314 314 314 313 313 313 313 312 313 313 311 309 309 310 310 308 309 310 309 310 312 314 314 313 313 312 310 312 317 318 317 317 316 317 317 319 320 320 323 324 323 325 327 329
307 305 303 303 304 304 305 309 313 314 314 315 315 318 318 316 314 313 314 316 316 318 319 319 319 320 318 316 315 316 317 316 315 315 315 315 314 314 315 315 315 315 315 315 315 314 314 313 313 313 313 312 313 313 310 310 310 310 310 309 308 310 310 310 311 313 314 313 312 312 310 312 317 318 317 317 316 317 318 319 319 321 323 324 324 325 327 329
310 307 304 303 304 304 305 308 313 315 314 316 316 318 322 320 317 316 316 318 319 320 321 318 319 319 317 315 316 316 316 315 314 314 315 315 314 314 315 315 314 314 314 315 315 315 314 314 314 313 313 313 314 313 312 313 313 313 313 311 309 309 310 312 313 313 314 313 312 311 310 312 316 317 317 318 317 317 319 320 320 322 324 324 325 326 327 329
313 310 306 303 304 304 305 308 313 314 314 316 316 319 323 322 320 320 319 319 320 320 319 317 318 318 316 316 316 315 315 315 315 315 314 315 315 315 315 315 315 314 314 315 315 315 315 315 314 314 314 315 315 315 315 315 315 314 314 313 311 310 310 313 314 313 314 313 312 313 312 313 315 317 318 318 318 317 318 321 321 322 324 325 325 325 327 328
315 313 309 305 303 304 305 308 312 314 314 314 316 320 320 318 319 320 318 319 320 317 316 316 316 316 316 316 316 315 315 315 315 316 315 314 314 315 315 315 315 315 315 315 316 316 316 314 314 315 316 316 316 316 316 315 315 314 312 311 310 309 310 313 314 314 314 312 312 313 312 313 315 317 318 317 317 318 319 321 322 323 324 325 325 325 326 327
316 316 313 307 303 304 305 308 313 315 315 317 320 321 317 316 318 317 317 319 320 316 316 316 315 315 316 315 315 315 315 315 316 315 316 314 315 315 315 314 315 316 316 316 316 316 315 314 314 316 316 316 316 316 315 314 314 313 312 310 309 310 311 312 314 314 314 312 312 313 311 313 315 316 318 317 317 319 320 321 322 324 324 324 324 324 326 327
317 317 316 310 304 304 305 308 314 315 317 321 322 318 316 316 317 317 318 320 320 316 315 315 314 315 315 315 316 316 316 316 315 316 316 315 315 315 315 315 315 316 316 315 315 314 314 315 316 316 316 316 315 315 314 313 313 313 312 310 309 311 311 310 312 314 314 313 312 312 311 312 315 316 317 317 317 319 320 320 322 323 322 323 323 324 325 327
318 318 318 313 306 304 305 309 315 318 320 322 321 317 316 316 317 318 319 322 321 316 314 316 315 316 315 315 315 315 315 315 315 316 316 314 315 315 314 314 315 316 315 315 315 314 314 316 317 316 316 315 314 315 315 313 313 313 312 311 310 311 311 311 313 314 314 313 314 313 310 311 313 316 317 317 317 319 319 320 322 321 322 322 322 324 325 325
318 318 318 315 309 304 305 311 318 319 320 321 320 318 315 316 318 318 321 324 321 316 315 315 315 316 315 315 316 315 315 315 314 315 316 314 314 315 314 315 315 315 315 315 315 315 315 316 317 315 315 314 313 314 315 314 313 312 314 314 314 313 313 314 314 314 312 312 313 312 309 309 312 314 318 319 317 319 320 321 321 320 321 322 322 323 324 324
318 318 319 317 311 305 307 316 318 316 318 320 320 317 315 317 319 319 324 325 319 316 315 315 315 315 315 315 316 315 316 316 315 315 316 315 314 314 314 315 315 315 315 316 315 315 315 316 316 315 315 315 315 315 315 315 313 312 314 315 316 315 314 314 313 313 311 311 314 314 311 310 311 313 317 320 318 319 322 322 323 322 321 321 321 321 322 322
317 318 318 318 313 308 311 315 314 315 319 319 317 315 316 319 319 321 327 326 319 316 316 316 316 315 315 316 316 315 316 317 316 316 316 316 315 314 314 314 316 316 316 316 316 316 316 316 316 315 315 315 316 315 315 316 314 313 315 315 315 315 314 314 313 312 311 312 314 314 313 311 312 316 318 318 319 321 321 321 322 323 320 320 321 321 321 321
317 318 318 318 313 308 311 313 314 318 320 318 316 315 317 319 320 322 328 327 323 317 317 316 316 315 316 317 316 315 316 316 316 317 317 317 315 315 314 314 315 316 316 316 316 317 317 317 316 316 316 316 316 316 317 317 315 314 315 315 315 315 315 314 312 312 311 312 311 311 313 311 314 320 320 318 321 321 322 321 321 322 320 319 320 320 320 321
317 318 319 318 311 309 315 316 317 320 320 319 317 316 318 320 322 325 327 327 323 316 317 317 316 316 316 316 316 316 316 317 316 317 316 316 316 314 314 314 315 316 316 316 316 317 318 318 317 317 317 317 317 317 318 317 316 316 315 315 315 315 315 314 313 312 311 312 311 310 312 311 314 320 320 319 321 321 321 321 322 321 319 319 320 320 320 320
317 318 319 318 313 312 316 317 318 320 320 320 318 317 319 322 326 327 326 325 321 317 318 317 316 317 316 317 317 317 317 317 317 316 315 315 315 315 315 315 315 315 316 316 317 318 318 317 318 316 315 316 317 317 317 317 316 316 315 315 314 314 314 314 313 312 311 313 312 310 312 313 316 319 319 320 321 320 322 321 321 320 319 320 320 319 319 319
317 318 319 317 315 313 313 315 318 320 320 320 319 320 322 326 327 327 326 323 319 319 318 318 318 317 317 318 318 317 317 317 317 316 316 316 315 316 317 317 317 317 320 322 320 318 319 318 318 317 316 315 315 315 316 316 315 316 315 314 314 314 314 313 313 312 314 314 312 311 313 314 317 320 320 321 321 320 321 322 321 320 319 320 320 319 319 319
316 319 318 316 314 313 312 315 319 320 321 321 321 323 327 329 328 325 324 320 319 320 319 318 319 318 318 318 318 318 318 317 317 316 317 316 316 316 317 318 320 321 323 324 321 321 324 321 318 317 317 316 315 315 317 317 316 315 314 313 314 314 315 316 315 316 317 315 312 312 313 313 317 321 320 320 320 320 322 322 321 320 320 320 319 319 319 319
315 318 317 313 314 315 314 318 321 321 322 322 323 325 327 328 325 321 320 318 320 321 319 319 319 318 318 318 318 318 318 318 317 316 317 317 316 317 317 318 319 320 323 324 321 322 325 323 319 318 318 317 315 315 317 318 317 316 314 315 316 317 318 318 318 318 318 316 313 313 313 316 319 321 320 320 320 320 321 321 320 320 320 319 319 318 318 318
314 317 317 314 316 318 316 319 322 322 323 323 324 326 327 327 324 319 319 319 321 320 319 320 318 318 318 318 318 318 317 318 317 317 318 318 317 319 322 322 319 318 320 322 321 321 322 321 320 318 318 317 316 316 317 317 317 317 316 316 317 319 320 319 319 320 319 316 315 314 315 317 319 320 319 318 319 319 321 321 320 320 319 319 319 318 318 318
314 318 319 317 319 321 320 320 322 323 324 323 324 326 327 326 322 319 320 320 320 320 319 319 318 318 318 317 319 318 316 316 316 317 318 318 318 320 323 323 319 318 320 321 321 321 320 320 320 319 317 317 317 317 317 316 317 317 317 317 317 318 319 318 319 319 318 318 317 315 318 320 319 319 319 318 319 319 320 320 320 320 319 319 319 318 318 318
316 320 319 318 321 324 325 323 323 324 324 324 324 325 325 323 320 319 320 320 319 319 319 319 318 318 317 317 318 318 317 315 316 318 317 318 319 319 320 320 319 319 320 320 319 320 320 321 322 321 319 317 316 317 317 316 317 317 317 319 318 316 316 318 320 319 317 319 318 316 320 321 320 321 321 319 319 319 319 320 320 319 319 319 319 318 318 317
318 321 320 319 320 322 325 323 323 324 323 324 325 324 324 321 320 319 319 319 319 318 319 319 318 317 316 315 316 318 318 316 316 317 317 317 320 319 319 320 319 317 318 318 317 319 320 320 321 321 319 318 317 318 317 316 317 316 318 319 317 316 316 317 318 319 318 318 317 317 320 321 320 322 322 320 319 320 320 319 319 319 318 318 318 318 317 317
318 321 322 321 319 321 323 322 323 323 322 323 324 324 323 321 319 319 319 319 319 319 319 319 317 317 316 315 316 318 318 316 316 317 317 318 319 319 318 320 319 316 316 316 317 319 320 320 321 320 319 320 318 318 319 319 317 316 318 318 317 320 321 318 317 318 318 317 317 318 319 320 320 321 321 321 321 321 320 319 319 318 318 318 318 317 317 316
319 322 323 322 320 321 322 323 323 322 323 324 324 324 323 320 318 318 319 319 318 319 319 319 318 317 316 316 315 317 318 317 316 316 317 318 320 319 318 318 318 317 317 316 317 319 319 320 321 320 319 319 318 318 320 321 319 317 318 317 317 320 321 319 318 319 317 318 319 318 318 320 321 321 321 322 321 321 319 318 318 318 317 317 317 317 317 316
322 322 322 323 322 322 323 323 322 322 323 324 323 323 322 320 319 318 318 318 318 319 318 319 319 317 317 317 316 317 318 317 317 316 317 319 320 319 317 316 317 317 318 316 316 319 319 320 321 320 319 320 320 319 319 319 319 318 318 319 318 318 319 319 318 318 317 319 320 318 318 321 321 321 321 322 321 320 318 318 317 317 316 316 316 317 317 316
323 322 322 324 323 321 322 323 322 322 323 322 322 322 321 320 320 318 318 317 318 318 317 318 319 317 317 317 316 317 317 317 316 316 317 319 321 320 318 317 317 317 317 317 319 320 320 320 320 319 320 322 322 321 318 317 317 317 320 322 322 321 320 320 320 318 317 319 319 318 319 321 322 321 320 320 321 320 317 317 317 316 316 315 316 317 316 316
322 323 323 323 322 320 321 322 321 322 322 322 321 321 321 321 319 319 319 317 317 317 317 318 319 317 318 318 317 316 317 317 316 317 318 319 320 321 320 316 316 316 316 317 320 321 319 319 319 319 319 321 323 321 317 316 316 315 318 322 322 322 320 320 321 321 320 318 318 319 320 322 321 321 321 320 320 318 317 318 317 317 316 315 315 316 316 316
322 324 322 322 321 318 318 319 319 321 322 322 319 319 321 321 320 320 319 318 318 318 318 319 319 317 318 319 317 316 317 317 316 317 319 319 319 320 318 316 315 316 317 318 320 320 319 320 320 320 318 318 320 320 319 319 317 317 319 319 319 320 319 319 322 322 321 319 320 320 321 322 321 320 320 319 318 318 317 318 317 317 317 315 314 315 316 315
322 322 321 323 321 317 315 316 318 320 322 321 320 319 320 320 320 320 320 319 319 319 319 319 318 317 317 317 316 316 317 316 316 317 318 319 319 318 316 316 315 316 317 318 318 318 319 319 319 318 318 318 319 321 321 320 318 318 320 319 317 317 318 319 321 322 321 320 320 320 321 323 322 320 319 318 318 318 318 317 317 318 318 316 315 315 316 315
321 320 320 322 322 318 315 315 317 320 322 322 322 320 320 320 321 320 320 320 319 319 319 319 318 317 317 317 317 317 317 316 316 318 318 318 319 317 316 316 315 315 317 317 316 316 318 320 319 318 319 318 319 320 321 319 318 317 318 318 318 318 318 319 321 322 321 321 319 319 321 323 322 320 319 319 318 319 319 318 317 318 318 317 316 317 316 316
321 321 320 320 321 319 317 317 317 318 320 321 320 320 319 320 320 320 320 320 320 319 319 318 318 317 316 317 317 317 317 317 317 318 318 318 319 318 317 317 315 316 317 316 315 316 318 320 319 318 319 318 318 320 320 318 318 318 318 318 318 318 318 319 320 321 322 321 320 321 322 323 322 321 319 319 319 319 319 318 318 318 318 317 317 317 317 316
321 320 319 320 321 320 320 319 317 318 318 319 319 319 320 320 320 320 320 320 320 319 319 319 318 317 317 317 318 318 317 316 317 318 318 318 319 318 318 317 316 318 318 316 315 316 319 322 320 318 319 318 318 319 319 319 319 319 319 319 318 318 318 319 319 320 321 321 320 322 324 324 323 322 320 320 319 319 319 319 318 317 317 316 316 317 316 316
320 320 319 321 321 322 321 319 319 319 319 319 319 319 320 320 320 320 320 320 319 319 319 319 318 317 317 317 317 317 316 315 316 317 318 317 317 318 319 317 317 318 318 317 317 318 320 322 321 319 319 319 319 319 319 319 320 320 320 320 319 318 318 319 319 319 320 320 320 323 325 324 323 321 321 320 320 318 318 318 318 317 317 316 315 315 315 314
320 319 319 320 320 321 321 319 320 321 320 320 320 320 320 320 320 320 320 320 321 320 319 320 319 317 317 317 317 317 316 316 315 316 317 318 317 319 320 320 319 318 317 318 320 319 319 320 320 319 319 320 319 319 319 318 319 319 320 320 319 318 318 319 319 319 319 319 319 321 322 322 321 321 320 321 320 319 319 318 318 317 316 316 315 315 314 314
320 320 321 321 320 320 319 319 320 320 320 320 320 319 320 320 320 320 319 319 321 321 319 319 319 318 317 317 317 317 316 316 316 315 316 317 317 317 319 320 320 319 318 319 320 320 319 319 319 319 319 320 320 319 318 319 319 320 320 319 318 317 317 318 318 318 319 319 319 319 319 320 321 321 320 320 320 319 319 319 318 317 317 316 315 314 314 313
320 320 321 321 321 320 319 319 319 318 318 318 319 319 319 319 319 319 319 318 320 321 320 319 319 318 318 318 317 317 317 316 316 316 315 316 316 316 317 318 319 319 319 319 319 320 320 319 320 320 320 320 319 318 318 319 319 320 320 319 317 316 317 317 317 317 318 319 319 319 319 320 321 320 319 319 318 318 318 318 317 317 316 315 315 314 313 313
319 319 319 320 321 319 318 319 318 317 318 318 318 318 319 319 318 318 319 318 318 320 320 320 319 318 319 319 318 318 318 317 316 316 315 315 315 315 316 317 318 318 319 320 320 320 321 320 321 320 319 318 318 318 318 319 320 321 320 317 316 316 317 317 317 316 317 318 318 317 319 320 319 318 318 318 317 317 317 317 317 316 315 315 314 313 313 312
Wind_Speed
20 20 21 22 22 22 22 22 22 22 21 20 19 17 16 15 14 13 11 8 7 7 7 8 9 10 11 12 12 12 13 13 13 13 8 3 6 4 2 1 1 3 5 6 10 9 8 9 10 11 10 9 8 8 10 9 8 6 6 8 7 8 8 9 10 7 6 9 3 8 6 2 3 7 2 3 8 8 10 10 9 9 6 7 9 3 9 16
20 21 21 22 22 22 23 24 24 23 23 21 19 17 16 15 14 13 10 7 7 7 7 8 9 10 12 13 13 14 14 13 16 12 2 6 3 2 1 2 3 5 6 9 11 9 9 8 9 11 9 7 7 8 10 8 8 7 6 7 8 9 9 9 13 8 7 10 4 8 5 3 5 8 2 1 7 6 8 9 9 11 8 8 11 9 11 9
21 22 22 22 23 22 23 25 25 24 24 22 20 18 17 16 15 13 9 7 6 6 7 8 9 11 13 14 14 15 13 13 13 4 6 4 3 3 3 4 5 6 8 11 12 10 9 6 8 10 8 8 7 9 10 8 8 8 7 7 9 10 12 11 14 10 6 11 10 6 6 2 6 8 3 3 6 6 8 7 7 9 7 7 9 9 5 6
21 22 23 23 24 23 24 26 26 26 25 23 20 18 17 16 14 12 9 6 6 7 7 8 10 12 13 14 15 14 11 11 5 6 6 5 5 4 4 5 6 7 10 14 15 10 9 9 7 9 9 8 8 9 10 7 6 7 8 9 10 12 14 8 12 11 4 6 8 7 3 2 4 5 7 8 7 6 8 8 8 8 7 7 7 5 10 21
20 22 24 25 25 24 25 26 27 27 26 23 21 18 16 16 14 12 9 6 7 7 8 9 10 12 14 15 14 11 9 6 3 8 6 6 5 3 4 5 6 8 11 16 14 6 8 9 7 9 8 7 8 8 8 9 8 7 9 11 13 14 12 6 10 11 9 8 7 7 9 6 3 4 7 9 9 7 8 8 8 8 8 10 12 13 14 20
20 22 23 25 26 26 25 27 28 28 27 24 20 18 16 15 14 12 9 6 7 7 8 9 11 13 15 15 12 7 7 2 5 7 8 7 4 3 4 5 6 8 10 17 12 5 8 8 7 8 7 8 9 8 8 10 10 8 8 10 13 16 12 8 7 6 7 9 9 8 9 9 7 8 8 8 8 8 12 13 12 10 9 11 11 12 11 17
21 22 23 25 26 26 26 27 29 29 27 24 20 17 15 15 14 12 9 7 7 8 9 10 12 14 16 16 9 6 8 1 8 9 9 6 4 3 4 4 6 11 12 17 11 6 7 7 8 8 8 8 8 9 11 11 11 8 9 10 11 12 9 7 8 5 4 6 8 9 10 10 9 9 8 8 10 9 11 11 10 10 7 8 8 9 8 16
21 22 23 25 26 27 27 28 29 29 28 24 19 16 15 15 14 12 10 7 7 8 8 10 13 14 17 15 7 8 6 5 11 10 7 5 4 3 4 5 12 15 15 17 10 5 6 8 8 7 9 6 5 6 4 6 8 6 12 11 7 7 7 7 9 8 6 6 7 8 10 12 10 8 8 10 10 7 8 8 8 8 7 7 7 8 6 14
21 22 23 25 26 27 28 29 30 30 27 23 18 15 15 15 14 12 9 7 7 8 8 11 13 13 15 11 7 7 2 11 12 11 7 5 3 4 7 10 13 11 8 8 6 6 4 6 7 5 6 4 3 5 3 4 7 8 12 7 4 5 6 7 8 8 8 6 7 9 11 11 9 7 8 12 12 8 8 7 7 8 7 8 6 6 4 12
23 22 23 25 26 27 28 30 30 29 25 21 17 15 15 15 13 11 9 7 7 7 8 11 12 14 13 8 9 5 8 12 10 10 7 5 5 7 9 7 7 8 4 2 4 6 2 5 5 3 5 4 4 5 2 6 4 6 7 2 6 7 4 5 6 9 9 7 8 10 9 10 10 8 7 10 11 8 7 6 6 8 8 7 7 7 1 15
24 23 24 25 26 27 28 30 31 28 23 20 17 15 15 13 11 10 9 7 7 7 8 10 12 13 11 10 8 2 7 8 7 9 5 4 6 7 6 3 4 9 6 2 3 5 5 7 4 3 3 2 3 4 5 5 1 5 5 3 9 8 5 7 7 8 7 6 8 8 8 11 9 8 8 6 2 3 5 6 7 8 7 6 8 5 7 16
25 25 24 25 26 27 28 30 30 26 22 19 16 15 14 12 11 11 8 7 7 7 8 10 11 11 10 9 3 2 3 4 4 6 5 4 7 5 3 2 6 9 9 5 2 2 7 7 4 7 3 4 4 3 3 2 1 7 6 6 10 9 9 10 8 7 6 5 7 5 8 10 8 9 9 1 4 3 4 6 8 7 8 7 7 1 10 15
26 25 25 25 26 27 29 31 30 25 21 19 16 15 13 11 11 10 7 6 6 7 9 10 10 9 9 5 3 2 2 3 3 3 6 6 7 5 1 3 5 6 7 9 4 2 5 6 7 10 6 7 5 2 1 2 3 8 7 7 8 8 10 10 9 6 4 3 5 3 5 8 11 11 4 4 3 4 4 5 7 6 7 7 3 5 12 15
27 27 26 26 26 27 30 31 28 24 20 19 16 14 12 11 10 6 4 5 6 8 9 10 10 8 7 2 4 2 4 4 6 6 8 8 9 8 4 3 4 5 5 7 6 1 4 7 8 9 7 8 6 4 3 5 5 7 8 7 6 8 8 12 11 7 6 6 5 5 5 6 6 9 4 4 2 5 5 6 5 4 4 7 6 8 9 13
28 28 28 27 27 28 30 30 26 22 20 19 16 13 11 10 7 4 4 6 7 8 8 11 10 6 6 2 3 3 6 7 9 8 5 8 11 7 6 5 4 4 4 5 8 3 5 8 7 8 6 6 6 6 6 6 6 6 7 6 6 8 5 12 13 9 7 6 6 7 6 1 7 8 5 2 4 3 6 6 4 6 8 9 8 9 8 11
29 29 28 28 28 27 29 29 24 21 20 18 15 13 10 8 6 5 7 8 9 9 6 8 9 10 5 0 5 3 7 9 5 4 1 7 10 2 4 5 2 4 5 5 6 4 5 8 7 8 7 5 6 7 5 5 6 6 6 6 8 8 6 10 13 13 9 6 7 7 7 3 8 6 4 1 4 2 3 2 5 5 8 8 6 7 8 9
30 30 29 28 28 28 29 27 22 20 20 18 16 13 9 8 7 7 9 10 11 10 8 10 9 9 5 2 6 5 8 7 4 2 3 3 7 6 3 8 6 7 7 6 6 6 7 7 6 6 6 6 6 6 6 6 6 6 6 6 9 9 7 7 11 13 9 6 6 7 8 5 6 5 4 3 2 2 2 4 5 4 7 7 5 7 9 9
32 31 30 29 28 28 28 26 20 17 19 17 15 15 12 8 8 9 10 10 8 8 11 11 10 6 2 3 5 4 2 2 2 3 2 3 4 6 7 9 5 5 8 8 7 8 7 5 6 6 5 6 7 7 7 6 6 5 6 5 8 9 6 3 6 9 7 6 6 8 8 6 8 8 4 4 1 2 2 4 3 5 7 5 6 8 8 9
33 32 31 30 29 28 27 26 19 16 19 16 15 18 14 9 8 9 11 9 5 6 6 5 9 5 1 2 2 2 2 4 2 4 7 5 3 4 7 7 5 4 7 6 7 9 6 5 6 5 6 7 7 8 5 7 9 6 5 5 7 6 6 5 6 8 3 4 6 7 9 9 8 7 4 4 1 2 3 4 1 4 6 5 7 8 8 9
33 34 33 30 29 28 27 25 18 15 18 18 20 18 11 5 3 4 7 10 9 7 7 2 9 5 3 2 3 4 2 0 3 8 6 2 3 7 8 8 6 6 7 4 5 6 3 5 6 6 7 5 5 7 5 9 10 8 8 6 7 6 6 7 8 9 2 2 6 7 11 10 5 4 1 2 2 2 2 3 1 4 7 6 7 8 8 8
32 34 34 32 30 28 26 24 17 14 15 18 22 13 4 7 5 3 4 9 7 5 9 3 2 6 1 4 8 3 5 4 5 6 2 3 5 8 4 6 7 6 5 6 3 2 2 5 7 7 7 6 7 8 7 8 8 7 7 7 7 7 8 6 3 6 8 2 7 10 13 9 4 4 4 2 2 2 2 3 2 5 7 6 7 9 9 8
31 33 35 33 30 28 26 23 14 12 13 16 17 6 7 10 7 7 7 9 6 2 6 3 5 5 2 4 6 3 5 4 4 4 2 1 7 6 1 4 7 4 4 6 4 4 5 6 7 5 4 6 7 7 8 9 9 8 7 7 7 7 7 6 7 3 6 2 7 10 12 7 4 7 6 4 4 2 2 3 4 5 5 6 7 8 9 9
30 32 34 34 31 29 26 21 13 11 12 14 10 8 9 9 9 9 6 7 5 5 8 6 7 5 5 1 2 3 6 4 3 3 6 3 7 4 3 5 6 6 6 6 5 5 5 5 7 5 3 6 8 8 8 8 7 7 7 6 7 7 6 5 6 5 1 4 7 11 11 7 7 7 7 7 5 4 4 4 6 5 5 7 8 8 9 8
29 31 33 34 33 29 26 20 13 11 11 12 6 9 10 9 9 11 6 6 5 5 5 4 6 4 5 3 1 5 7 1 3 1 5 4 7 2 4 7 8 8 4 3 7 8 7 3 2 5 5 7 10 9 8 7 6 8 8 7 8 7 6 6 5 6 7 8 7 9 10 6 7 8 9 8 6 6 6 5 5 4 5 8 8 8 9 7
28 30 31 34 33 29 26 18 11 10 12 10 6 9 10 9 9 9 5 5 4 4 0 1 4 1 7 3 3 6 6 1 5 1 3 4 8 6 5 5 6 6 3 3 9 9 5 1 1 6 7 8 9 8 7 6 5 6 6 7 10 9 8 9 9 7 7 7 6 8 8 6 7 10 8 6 7 6 5 4 3 4 5 6 7 8 8 7
27 28 30 32 32 32 23 10 10 18 16 9 9 10 10 9 8 7 4 5 2 4 2 4 4 0 3 2 5 4 4 1 2 1 2 5 7 7 6 4 4 5 5 5 7 6 3 3 4 8 9 8 8 8 6 4 5 5 3 4 9 9 9 11 11 8 6 6 7 9 8 6 7 8 8 10 9 3 8 8 6 4 5 6 7 7 6 6
26 27 30 30 31 32 18 7 16 21 11 8 11 10 9 8 7 5 3 3 2 2 3 4 2 1 2 3 3 7 4 2 2 4 3 3 4 5 6 5 4 4 5 5 3 2 4 5 5 7 9 7 6 6 4 5 7 4 1 5 8 8 10 11 10 9 7 7 8 9 9 7 5 3 4 12 9 6 10 11 13 10 7 7 7 7 7 6
26 26 29 30 29 25 14 12 18 16 10 13 13 10 9 8 7 4 2 1 2 1 2 2 3 1 5 2 3 8 5 1 4 3 2 5 6 5 6 7 6 6 5 5 3 1 2 5 5 6 7 5 5 5 5 6 8 4 3 7 8 8 11 11 9 8 8 8 8 9 8 7 4 2 3 8 8 7 7 8 3 7 6 7 6 6 6 6
26 26 27 31 28 17 10 13 14 13 12 14 12 11 10 8 6 3 2 2 1 1 1 1 1 4 5 6 5 7 6 3 3 2 4 8 6 5 6 7 8 9 6 6 7 4 3 5 5 6 6 5 6 7 7 8 8 5 4 6 7 9 11 10 9 7 8 8 8 8 8 6 3 4 5 5 5 5 6 7 5 4 2 5 5 4 4 5
26 25 27 31 27 15 11 13 13 12 12 12 12 13 10 7 4 3 3 1 1 0 0 1 1 2 4 7 6 4 6 5 5 7 5 3 4 7 4 5 6 8 7 7 8 6 6 6 5 6 7 6 6 7 8 8 9 7 7 7 8 9 9 8 7 6 7 7 8 11 8 5 3 1 3 3 3 6 7 6 5 3 3 3 2 3 4 5
26 25 26 30 26 16 12 10 8 9 10 11 14 12 7 3 2 4 2 1 2 1 1 1 1 2 5 6 4 4 6 7 6 7 4 2 4 5 4 4 4 4 5 4 5 7 10 8 6 7 7 7 8 8 9 8 8 8 7 7 7 7 6 6 6 6 6 6 6 9 7 5 5 1 2 3 5 7 7 5 4 3 2 2 2 3 4 4
26 26 26 26 21 15 12 9 10 12 10 12 13 7 2 1 3 4 1 3 3 1 2 1 2 3 6 7 6 5 5 5 5 5 4 5 5 4 5 4 2 3 2 1 3 6 6 7 9 10 9 8 8 7 7 7 6 6 6 6 7 5 4 6 6 4 5 5 5 6 7 5 2 2 4 4 5 6 6 3 3 2 1 2 2 3 4 4
27 28 25 19 14 14 13 11 12 11 11 12 10 5 1 3 3 1 3 2 1 1 2 3 5 6 7 7 6 6 4 4 4 3 4 6 6 4 4 6 6 5 3 1 1 3 2 6 7 10 9 7 8 6 4 4 4 5 4 4 4 4 5 6 5 3 4 5 5 6 7 3 2 2 3 5 5 4 5 4 2 2 2 2 2 3 3 4
28 27 23 16 13 14 11 9 9 9 10 10 6 4 4 6 3 1 4 3 4 2 3 2 5 8 8 6 4 5 4 4 4 4 3 4 6 3 3 8 8 5 3 2 1 1 4 3 4 10 6 4 8 6 4 6 5 5 3 3 3 2 4 4 2 3 4 4 5 5 4 2 1 2 4 4 4 4 4 4 3 2 2 1 1 2 4 5
27 24 21 16 13 11 8 8 8 7 8 7 4 4 5 5 4 2 4 3 3 1 4 3 5 7 6 3 3 4 3 1 2 3 3 4 4 1 1 3 5 2 3 4 2 2 5 1 2 8 7 6 8 4 4 6 5 3 2 5 5 2 1 3 4 6 5 3 5 3 1 1 1 3 5 5 4 4 4 4 4 3 2 1 0 2 3 4
25 22 17 14 12 8 7 7 6 5 6 5 4 5 4 5 5 4 4 3 2 4 6 6 4 4 5 2 3 1 1 2 3 3 3 4 4 1 2 0 5 7 5 4 2 2 4 1 1 7 10 8 4 4 4 4 3 2 1 5 5 1 2 5 5 6 5 5 6 2 3 4 3 3 3 4 5 5 5 5 5 4 3 2 0 1 2 3
21 18 15 14 11 6 6 6 4 5 5 5 5 5 5 6 5 4 4 3 4 3 5 6 1 1 5 3 1 2 2 3 2 2 4 4 2 1 1 3 8 7 5 5 3 2 4 3 5 7 6 2 3 4 7 6 4 5 3 3 4 2 5 5 3 3 4 6 4 0 4 5 5 2 0 3 6 7 6 6 5 4 3 3 2 2 3 4
18 15 13 14 10 3 4 4 4 6 5 5 6 7 8 6 3 3 4 5 4 2 4 4 1 2 3 3 4 3 3 3 1 2 4 3 1 2 4 4 3 3 5 6 4 2 3 5 3 3 2 4 5 6 6 5 5 5 4 4 3 2 4 4 3 4 5 6 4 3 6 4 3 2 4 7 8 8 7 5 6 5 3 3 3 3 3 4
15 11 7 5 4 2 3 3 4 5 4 5 6 5 7 6 2 3 4 4 4 4 3 2 1 2 3 4 5 3 3 5 4 4 4 2 0 4 6 4 1 2 5 5 4 3 2 3 2 1 2 2 6 4 2 3 4 3 5 5 3 3 3 3 1 4 5 5 4 2 3 2 1 2 6 7 6 7 8 6 5 5 4 3 3 3 4 4
11 7 1 4 3 2 3 3 5 5 5 6 6 5 7 6 2 4 4 2 3 4 3 2 1 2 4 5 5 4 3 5 5 3 3 4 3 4 5 4 3 3 4 5 5 5 3 2 2 1 1 1 3 3 1 1 3 3 2 4 4 3 3 1 1 3 4 2 4 5 3 2 3 1 4 5 5 7 7 6 6 5 4 3 3 4 3 3
8 6 2 5 3 2 3 5 5 5 5 6 7 7 6 4 4 2 4 3 2 2 2 5 5 3 4 5 3 3 4 6 5 2 3 4 3 1 2 4 4 4 5 5 4 3 2 3 5 5 1 1 2 3 3 3 5 5 1 1 3 1 1 3 3 2 2 2 3 6 4 2 4 2 5 6 8 8 7 7 6 7 6 3 2 2 2 2
7 5 4 8 5 3 4 6 5 4 6 6 4 4 2 1 5 4 2 3 3 2 1 3 4 3 4 5 4 4 4 5 5 3 2 3 2 2 1 4 6 5 4 5 3 2 2 3 5 6 4 4 6 7 4 4 6 5 2 3 3 2 1 4 2 1 3 4 4 6 4 1 2 3 6 7 7 8 8 7 7 7 6 4 2 0 1 2
6 4 5 11 7 3 4 6 5 5 7 4 2 3 3 2 4 3 2 4 4 1 1 3 3 2 2 3 5 5 4 3 6 3 2 3 3 2 1 2 5 5 3 4 3 2 1 2 3 5 5 6 3 4 4 8 7 4 2 1 3 3 2 2 2 2 4 2 2 4 3 1 2 3 5 5 7 8 7 7 8 7 6 5 3 1 1 1
6 6 3 9 7 4 5 6 6 5 6 6 5 5 3 1 2 3 4 5 4 2 3 5 3 0 1 3 6 6 2 0 3 3 2 2 3 6 5 2 3 5 3 4 4 2 2 2 4 6 5 3 1 4 5 6 6 2 1 1 3 2 4 5 4 4 4 2 1 3 3 1 3 4 5 5 6 8 7 8 8 7 6 5 3 2 0 0
5 6 5 6 7 6 6 6 6 6 7 8 7 7 5 2 2 3 5 6 6 4 4 5 5 4 3 1 3 6 4 3 2 3 4 2 1 7 7 1 1 3 5 7 5 4 4 4 4 5 5 5 4 4 3 3 4 2 0 2 3 3 4 4 2 2 3 4 3 2 2 0 3 5 6 7 7 8 8 9 9 8 7 6 5 3 2 1
4 4 5 5 7 6 6 6 7 6 6 7 7 6 8 7 4 5 5 6 6 6 6 5 6 6 4 2 4 6 6 5 4 2 4 3 3 5 3 3 4 1 7 6 4 4 4 4 4 4 4 5 5 5 4 3 5 4 3 3 3 4 5 4 2 1 2 3 3 2 3 3 2 6 7 8 9 8 9 9 9 8 8 8 7 6 5 4
4 5 5 3 4 5 5 6 8 7 6 6 5 5 7 7 4 3 4 4 5 6 7 6 6 7 4 3 5 6 6 6 5 4 4 4 5 4 2 5 5 3 6 1 4 3 4 5 4 4 5 5 6 5 3 3 5 5 4 5 4 4 5 4 4 3 2 4 3 3 3 1 6 9 8 9 10 9 9 9 10 9 8 9 8 8 9 7
5 6 4 2 2 5 5 4 5 7 8 7 6 7 8 7 7 4 4 4 5 6 6 6 8 8 6 5 5 5 6 6 5 5 5 4 5 5 3 6 3 6 3 4 3 1 4 5 4 6 6 6 6 6 3 3 4 4 4 4 4 5 5 4 6 5 3 5 4 3 6 4 5 6 7 9 9 9 9 9 10 9 8 8 8 7 8 8
5 6 4 2 4 7 6 4 4 6 8 6 5 8 8 8 9 8 4 4 5 6 7 7 7 8 8 7 6 6 6 6 5 5 4 2 4 4 4 5 3 4 2 5 2 1 3 3 4 6 8 7 7 6 5 5 5 5 5 4 4 5 5 5 6 6 5 6 6 4 3 2 3 4 5 6 7 8 8 7 9 9 8 8 7 6 8 9
4 5 4 4 6 8 8 6 5 6 7 4 5 7 8 9 10 9 5 4 5 6 7 9 9 8 8 8 6 7 7 7 7 7 5 3 3 4 4 4 3 3 4 4 1 0 1 1 3 5 7 8 7 6 6 6 6 6 5 4 4 4 4 4 4 4 5 6 4 5 5 2 6 7 6 7 8 9 9 8 9 9 8 7 6 6 7 6
10 9 6 4 6 6 6 7 6 6 6 6 6 7 7 9 10 9 6 5 7 7 7 9 9 7 7 8 8 8 7 8 9 9 8 7 5 4 3 3 4 4 4 3 3 3 3 3 5 4 5 7 5 5 7 6 6 7 6 4 3 2 2 3 2 1 3 5 4 4 2 3 6 7 7 8 8 9 9 9 8 7 7 7 6 6 5 4
13 11 6 5 6 6 7 7 8 7 6 6 7 7 8 9 9 8 5 4 6 8 7 8 8 6 7 8 9 7 5 6 8 8 8 8 7 5 4 5 7 6 4 4 4 3 4 5 5 4 5 6 4 3 6 6 5 5 3 1 1 1 2 3 2 1 1 2 4 3 2 5 5 4 6 7 8 8 7 7 7 7 6 6 6 6 5 5
Wind_Direction
10 8 4 1 358 358 358 356 353 351 350 348 345 342 339 337 337 338 332 326 323 318 321 325 329 332 334 333 334 326 307 299 293 271 235 136 74 85 115 124 227 248 238 254 260 249 218 214 221 218 220 226 221 233 235 221 226 227 225 247 252 251 251 263 261 252 291 276 189 81 31 359 266 274 204 228 258 248 269 281 284 285 292 282 294 337 158 168
9 6 5 2 358 359 358 356 354 352 350 347 345 342 339 338 338 337 331 323 313 311 316 318 324 327 328 328 334 332 319 305 285 274 147 118 116 108 160 201 245 250 254 264 264 240 214 205 205 209 213 222 213 217 235 213 211 234 229 236 241 254 259 262 264 267 344 310 281 83 64 332 290 293 37 212 262 245 249 252 253 262 264 267 272 260 234 209
7 5 5 2 359 358 357 357 354 351 349 347 345 343 342 338 338 337 330 318 305 306 307 312 320 321 324 325 331 335 325 299 276 257 98 112 147 156 209 234 247 253 254 263 276 264 246 240 204 203 214 220 214 209 223 202 195 229 237 245 234 249 264 272 284 281 358 347 332 38 88 170 271 294 306 263 288 286 280 277 256 253 251 254 259 245 226 54
5 3 3 1 359 356 356 356 353 351 349 347 345 342 342 337 337 337 328 313 298 299 302 310 315 317 322 322 330 338 318 286 278 91 108 141 146 181 231 242 248 253 255 264 274 276 271 266 210 203 223 219 212 212 219 206 198 222 223 248 248 244 247 267 319 312 327 333 318 337 4 181 229 270 277 277 285 271 265 273 280 285 284 287 303 329 55 64
4 1 0 0 360 356 355 354 352 352 349 347 344 340 341 337 337 336 327 308 292 296 300 306 311 315 319 321 332 334 304 284 87 94 125 143 153 199 243 246 250 247 254 266 266 253 249 250 212 207 230 235 219 206 218 216 214 234 228 241 258 262 267 307 338 342 349 327 314 305 293 293 276 249 262 265 265 271 272 284 324 332 331 343 353 1 42 72
4 1 359 359 358 354 354 353 351 350 348 347 342 338 339 338 337 333 327 305 290 294 298 306 310 314 318 322 329 306 278 317 96 120 132 140 168 190 243 250 251 244 256 271 260 214 234 228 207 213 224 240 229 208 222 220 209 232 242 239 255 265 280 312 321 356 357 313 305 291 285 296 288 270 273 274 273 283 287 305 343 339 342 357 353 351 27 76
3 0 359 358 356 353 352 352 349 348 347 345 341 337 337 338 335 330 325 303 288 291 298 307 308 316 326 326 320 253 246 71 103 128 130 137 158 170 236 245 255 255 259 268 251 205 232 212 205 220 221 233 228 215 221 218 205 220 251 249 259 270 278 295 293 314 325 284 284 287 289 284 272 272 274 271 265 268 284 304 325 310 339 356 333 338 18 83
3 359 358 356 355 353 351 350 348 347 345 343 341 337 336 338 334 328 320 300 286 291 300 306 311 325 335 333 313 248 234 113 116 131 126 131 152 184 237 258 260 261 252 253 256 237 231 210 219 238 236 243 237 218 193 209 215 227 253 259 270 292 308 295 281 283 288 279 275 277 275 271 270 282 280 272 271 279 295 303 312 315 350 339 324 343 6 93
1 359 356 354 354 352 349 348 347 345 342 341 340 336 336 337 334 327 314 299 285 288 299 306 314 330 334 327 289 280 112 111 128 136 127 147 189 228 249 267 262 267 253 228 258 264 228 224 246 272 276 306 263 222 123 203 233 230 235 257 284 283 283 272 275 269 265 265 266 264 257 260 262 273 275 269 276 283 276 291 325 324 324 314 315 314 312 98
359 358 354 352 352 350 348 347 346 343 340 340 339 335 334 336 334 327 314 299 286 289 299 306 316 329 329 298 277 303 112 125 140 145 148 184 220 241 249 275 270 282 294 179 267 280 268 277 284 312 296 311 238 223 202 223 248 254 235 259 267 276 281 249 263 259 250 245 250 256 253 255 246 240 255 250 253 266 276 308 324 297 290 296 291 284 94 100
358 356 352 350 350 348 347 346 345 342 340 340 339 334 333 335 332 325 316 298 288 290 297 305 315 325 319 286 288 340 147 150 142 151 164 208 229 263 279 316 296 294 300 201 261 303 309 310 309 262 288 344 234 221 237 237 332 283 283 304 251 260 271 241 241 247 250 234 231 253 260 254 234 215 244 259 305 334 327 314 300 289 291 287 277 281 90 96
357 355 352 350 348 347 346 346 345 343 342 341 339 335 333 334 328 322 315 296 290 290 296 304 312 325 315 284 290 70 193 185 155 162 167 212 232 265 315 280 278 296 297 275 209 232 290 315 288 255 299 334 268 239 242 231 282 252 258 279 249 234 235 231 223 225 244 212 188 233 256 246 223 209 229 184 64 336 305 291 297 297 291 281 266 307 81 85
356 354 352 349 348 347 346 346 346 344 344 343 341 336 333 334 325 315 308 296 291 289 294 298 306 318 301 287 95 103 251 164 161 191 190 216 235 221 227 271 279 287 288 302 346 131 272 295 273 274 293 268 259 37 343 206 257 252 239 254 251 234 220 212 209 207 224 170 150 219 257 241 211 197 216 63 66 290 295 289 292 273 276 288 286 53 73 82
355 354 352 349 348 347 347 347 345 344 344 344 343 336 332 332 320 304 302 309 302 290 289 293 303 307 279 287 87 206 238 188 179 193 207 214 216 199 196 235 247 257 259 289 308 300 272 276 266 279 283 263 291 357 250 221 238 244 239 236 240 254 218 183 184 190 193 159 159 219 264 268 189 148 102 30 311 305 308 285 289 289 337 356 15 39 59 78
355 354 352 349 348 347 347 346 345 343 343 345 343 335 330 329 314 268 275 319 323 304 295 294 284 266 266 230 133 194 209 224 204 187 222 246 238 199 184 214 198 239 256 257 269 254 255 266 258 261 248 230 273 285 241 224 227 224 241 229 223 255 206 165 174 187 205 174 177 222 254 246 101 93 78 3 297 309 290 285 353 355 16 22 23 29 33 59
355 354 352 349 348 347 347 346 343 340 342 343 339 331 325 325 305 250 272 301 315 312 298 286 248 222 271 77 131 168 203 231 238 172 214 279 286 339 171 239 208 220 249 238 252 257 239 246 252 266 266 223 225 249 241 228 221 210 235 234 232 236 167 165 178 184 210 201 183 214 260 242 109 99 97 34 307 324 287 337 48 16 31 31 18 39 45 50
357 355 351 349 348 348 347 345 341 337 338 339 337 331 322 315 290 255 272 285 297 301 266 267 260 228 256 104 142 213 214 215 264 242 191 235 301 332 243 246 223 202 227 219 223 241 228 230 240 244 254 245 231 243 242 234 219 200 217 236 254 238 179 172 176 180 203 207 212 220 246 262 113 119 125 122 310 332 348 35 49 42 56 44 29 52 62 60
358 355 351 350 349 347 347 344 337 333 333 333 333 331 322 305 286 272 274 281 290 279 253 258 275 260 217 164 178 232 219 141 301 282 224 192 268 291 269 270 261 200 223 220 209 223 215 212 236 233 227 228 231 232 230 252 253 221 214 223 254 242 215 233 159 164 176 168 230 244 237 228 145 152 166 141 222 298 47 54 32 53 65 51 53 60 63 63
357 357 353 350 348 345 346 343 334 330 330 328 331 329 315 288 275 269 256 254 238 240 264 215 219 257 1 194 144 105 69 50 358 255 245 221 193 252 256 273 299 263 246 219 187 207 214 211 224 236 236 219 226 235 241 321 320 289 266 251 264 259 236 245 131 126 156 175 218 240 241 228 164 154 173 140 150 299 70 77 7 66 72 54 61 64 61 61
356 356 353 351 348 344 344 341 333 327 325 323 325 321 303 285 269 246 234 239 227 241 296 169 188 263 314 273 30 83 173 40 236 239 253 223 196 253 238 219 240 240 254 264 186 198 248 262 239 236 254 263 290 284 312 341 329 310 309 292 281 296 264 226 140 123 117 272 256 256 253 236 156 117 199 128 142 222 127 99 42 69 79 62 62 69 65 59
355 354 353 352 346 342 342 340 331 320 323 318 312 309 342 10 350 348 333 273 254 253 289 321 247 276 293 328 348 347 247 222 214 229 5 46 237 261 222 203 253 236 245 298 286 206 237 259 255 249 271 313 316 304 317 313 294 288 291 277 262 266 263 253 209 160 140 171 269 262 261 250 153 163 207 181 182 195 107 98 65 60 76 73 65 68 68 58
353 352 352 350 345 342 340 338 325 311 323 312 299 314 21 10 347 337 337 291 290 259 259 297 288 260 125 331 324 322 270 240 221 200 109 307 245 251 200 216 271 267 243 275 271 243 227 245 274 275 289 308 294 290 290 276 270 268 261 262 263 258 256 266 282 261 124 141 271 258 251 244 212 212 203 205 208 168 99 105 87 67 69 76 74 64 62 58
350 350 349 349 345 340 337 335 315 293 305 303 313 18 6 351 347 333 314 282 279 212 214 210 241 231 133 231 228 209 259 253 267 165 128 265 259 243 279 265 276 278 253 247 257 262 254 266 288 288 290 284 267 255 261 264 259 255 255 257 258 262 266 257 273 298 253 218 249 270 266 239 222 216 197 215 211 156 149 118 91 86 79 73 71 66 63 59
347 349 347 347 344 338 336 329 300 275 276 280 326 29 356 345 350 338 322 284 252 202 218 209 242 246 116 107 158 246 274 270 275 281 118 258 278 282 288 286 286 281 272 291 285 265 248 245 264 262 262 264 262 247 240 254 252 243 251 267 269 269 275 271 265 278 271 242 230 266 279 259 225 209 197 205 196 168 162 132 100 93 93 87 78 70 67 61
344 347 346 346 345 339 332 320 300 308 304 294 357 24 353 352 351 342 329 283 231 173 295 169 243 341 79 93 210 252 304 267 220 275 66 296 308 318 290 279 278 282 313 305 278 268 253 204 221 254 250 245 259 258 243 256 274 260 257 281 285 273 261 262 256 248 257 254 230 236 257 262 227 210 192 179 194 188 143 114 131 116 91 87 81 75 69 61
340 345 345 344 344 340 332 320 324 325 316 323 11 9 348 352 348 342 321 270 197 130 136 172 205 6 86 199 231 261 313 270 205 339 329 309 317 302 288 292 286 292 314 298 274 280 269 203 222 261 265 254 252 260 270 279 278 273 286 294 278 261 248 252 253 246 245 252 237 224 236 255 236 218 182 172 192 151 59 22 356 33 57 52 56 64 63 56
337 342 344 340 342 344 335 317 326 322 322 2 4 352 346 353 342 336 308 255 171 147 197 168 135 51 206 200 234 275 302 72 285 272 262 310 302 252 253 274 281 280 290 296 286 282 269 236 221 250 269 272 261 266 292 286 266 263 291 278 270 264 257 254 254 252 250 258 249 230 235 254 261 280 177 168 157 75 59 30 357 344 3 23 26 43 50 45
335 339 343 337 338 341 319 298 315 316 336 359 348 338 343 341 323 306 283 286 105 158 247 108 84 187 247 257 222 265 300 14 260 238 194 288 287 258 252 261 278 284 274 278 284 296 278 264 254 257 262 268 273 275 272 265 263 267 279 271 267 266 263 260 258 256 253 259 255 239 240 251 239 76 105 148 124 85 90 87 10 305 339 14 4 24 37 22
332 337 340 334 333 339 317 302 302 297 321 340 336 335 333 319 303 261 242 288 142 213 295 69 155 212 245 280 248 248 281 291 290 294 239 255 251 241 274 291 300 297 280 264 270 275 262 259 281 289 269 259 269 263 256 256 258 269 297 290 273 265 264 262 260 263 261 255 254 250 245 250 235 125 134 165 157 155 133 131 180 219 42 29 347 349 23 13
330 334 338 333 330 337 326 300 280 285 313 330 332 328 314 301 287 243 246 258 159 171 307 167 255 216 224 256 256 260 279 282 290 282 278 292 219 213 269 309 295 288 283 270 269 298 317 293 282 280 270 275 288 277 266 263 266 277 284 278 268 257 254 257 256 261 265 257 255 260 251 231 244 189 157 162 141 153 147 150 168 139 93 73 3 342 25 20
327 331 333 328 321 318 307 286 292 316 320 328 330 317 303 310 262 263 289 196 193 309 321 262 284 279 265 275 284 282 271 265 264 262 274 315 250 243 298 293 257 275 313 320 306 340 350 332 305 298 294 290 285 277 265 253 259 272 271 269 270 259 247 246 244 239 252 259 261 270 271 235 235 236 138 120 91 115 130 142 155 143 127 91 42 11 43 30
327 328 326 322 315 301 279 281 324 331 321 326 322 300 297 341 241 255 268 201 217 355 27 295 281 283 292 300 292 279 275 267 269 276 282 284 273 270 277 271 270 288 305 352 336 359 352 316 310 309 298 280 270 272 263 242 238 248 258 264 265 268 258 243 242 236 242 261 285 311 313 280 254 63 104 128 110 105 106 118 151 155 131 83 48 23 41 38
327 326 321 319 306 288 278 288 308 313 317 321 307 279 275 284 266 239 271 263 158 3 324 290 297 298 290 289 284 282 283 263 258 264 276 287 284 268 288 319 327 320 329 355 15 25 295 275 286 280 279 277 268 272 275 257 248 251 268 287 276 283 271 250 251 261 257 267 291 315 308 281 108 90 140 136 124 114 113 136 157 128 106 72 50 43 41 42
327 324 320 317 298 281 276 280 285 299 312 306 289 274 268 277 300 54 299 5 91 232 280 297 297 291 277 274 287 290 278 258 260 274 275 277 280 289 352 333 321 331 342 295 270 280 259 259 237 237 245 283 275 285 318 306 287 270 292 319 301 283 269 267 274 266 273 296 296 297 292 264 143 188 183 144 126 126 130 150 161 131 112 50 19 51 48 44
328 325 319 309 293 281 274 266 264 285 300 293 277 267 257 275 312 336 322 15 87 285 320 307 273 280 281 259 270 308 326 293 262 287 281 280 296 289 117 325 311 295 268 261 250 245 257 295 272 248 234 236 259 292 334 301 279 272 298 279 263 191 189 286 280 274 285 294 273 249 122 55 48 138 151 147 142 145 161 169 173 173 159 182 298 59 57 54
330 325 317 292 272 260 249 247 240 255 285 286 271 261 258 277 307 350 359 341 352 359 330 299 264 291 305 254 208 216 38 307 304 331 293 287 309 307 115 188 247 241 258 283 293 279 273 256 232 263 252 236 260 337 332 301 291 312 283 263 270 183 212 272 278 289 290 264 259 233 123 107 128 145 149 174 175 166 181 182 172 173 160 153 152 75 74 69
328 322 312 287 273 236 216 231 232 249 273 278 272 274 276 279 304 359 23 349 352 11 316 300 52 4 308 304 319 110 116 279 293 10 301 289 313 297 270 246 241 253 311 321 321 0 320 282 203 230 254 275 339 307 283 275 276 283 279 303 318 259 241 259 264 279 265 252 268 159 131 149 175 190 165 211 200 177 177 175 164 168 154 134 107 75 72 65
316 307 297 279 269 215 204 228 241 258 267 266 268 273 276 281 320 19 25 360 336 302 290 297 24 348 309 316 337 31 35 328 338 2 305 290 17 290 273 256 240 310 334 317 320 16 328 312 262 245 4 1 307 277 278 293 288 291 314 329 326 235 242 248 233 260 264 258 260 132 138 162 180 167 182 207 202 176 172 173 164 168 158 125 86 67 75 72
297 290 289 243 213 188 207 216 250 264 260 259 264 273 287 298 15 57 48 15 315 292 315 348 25 331 321 308 306 335 7 330 321 334 321 322 347 250 265 294 322 340 330 310 321 349 327 304 274 298 47 327 280 266 282 319 312 317 323 300 235 189 244 251 233 290 292 283 275 201 164 156 113 149 177 190 193 178 177 176 163 155 147 132 95 68 67 72
290 285 290 133 151 203 203 219 259 257 244 255 263 269 287 302 2 51 70 63 293 296 325 325 259 272 308 305 308 336 326 293 296 314 314 337 340 237 255 314 316 319 337 324 339 358 332 268 272 303 66 334 298 308 303 264 283 295 315 289 257 228 252 241 210 274 282 292 287 284 285 112 108 132 136 144 191 199 180 166 159 152 141 125 91 72 65 75
291 287 197 141 155 224 227 245 253 250 253 258 258 260 279 319 331 349 95 107 304 314 329 322 316 308 311 310 321 345 306 286 299 308 295 329 352 265 288 328 322 328 334 325 353 7 314 301 302 299 345 352 265 256 259 265 279 279 213 216 263 282 275 247 242 264 277 272 290 303 307 101 107 144 151 167 196 188 163 155 157 152 138 116 93 83 88 104
280 276 166 149 165 210 242 257 255 252 261 263 273 271 258 333 303 293 130 163 232 238 245 308 313 303 316 328 323 324 324 305 297 298 312 309 272 228 275 321 321 329 323 325 25 51 326 326 302 293 299 269 222 194 212 291 298 282 244 186 180 161 242 254 259 344 303 297 337 329 307 125 118 169 165 172 173 154 151 154 152 148 136 123 131 89 74 119
255 260 155 149 167 215 245 262 264 248 251 260 307 281 223 206 260 270 250 236 240 249 268 280 297 303 320 318 295 311 2 334 296 306 340 301 275 268 327 336 318 318 318 331 13 49 336 305 291 302 292 266 222 111 46 349 322 280 261 232 196 181 217 227 205 249 273 307 29 312 296 156 199 192 140 143 148 145 154 157 151 148 140 131 136 148 340 90
259 276 219 159 164 204 235 252 260 260 278 292 290 276 258 175 216 251 258 258 264 282 263 274 295 88 285 301 297 311 4 206 284 326 335 325 335 311 310 357 323 316 360 20 4 345 309 304 315 321 309 287 4 54 32 346 314 289 73 312 270 238 221 214 210 230 258 292 256 272 309 109 187 168 140 155 158 154 160 161 156 151 144 148 154 152 225 345
277 274 250 193 181 202 230 254 274 294 305 302 295 285 272 223 205 247 261 267 275 274 249 259 272 246 216 219 293 297 293 252 278 331 324 326 293 279 285 314 312 329 37 39 356 315 296 306 320 321 325 335 339 342 2 334 299 306 40 295 294 279 252 241 241 239 270 307 318 310 341 74 162 163 172 178 172 171 169 159 154 151 154 163 160 153 184 254
280 265 249 206 186 207 240 254 265 279 287 293 300 288 269 257 226 210 235 252 253 253 252 251 261 261 247 241 275 278 274 251 229 262 301 301 269 259 270 285 274 38 57 31 322 291 284 287 298 300 309 329 331 334 355 323 296 312 324 307 299 290 287 280 270 237 236 289 315 34 28 8 198 199 197 182 176 181 176 160 153 156 166 168 163 170 183 211
272 273 266 232 191 212 235 235 236 243 246 256 281 285 276 277 264 198 203 244 249 248 257 257 254 260 264 280 285 286 283 265 228 239 281 289 288 284 272 289 288 102 86 319 245 246 288 283 294 302 292 302 315 325 342 304 299 316 313 305 302 292 294 286 273 264 222 259 281 119 98 322 229 210 197 189 189 184 178 172 163 164 173 167 166 174 177 195
248 262 273 330 270 228 227 234 245 256 252 242 251 272 275 277 278 251 201 231 259 245 240 246 247 251 251 249 262 277 287 283 262 263 274 269 282 289 267 275 272 122 126 267 235 224 297 285 295 303 292 293 298 298 296 281 292 304 291 293 301 288 283 274 276 283 267 279 299 164 165 200 226 203 184 193 194 178 178 179 164 165 172 163 167 174 175 195
252 264 268 315 289 257 261 292 304 281 270 261 254 262 269 271 276 273 234 219 251 245 238 243 242 246 250 248 254 265 272 278 279 278 279 269 278 289 278 267 241 145 218 267 260 326 301 289 304 304 296 290 282 281 289 283 283 290 286 292 296 283 279 267 269 281 277 281 300 286 247 166 154 183 188 193 183 167 179 185 162 162 172 167 171 179 185 198
262 299 308 302 279 262 264 280 285 266 255 246 243 251 261 264 266 271 258 232 244 246 243 245 241 242 251 250 249 258 265 277 286 284 278 272 265 266 273 275 259 233 253 261 262 294 255 283 310 299 292 288 277 270 274 271 274 285 293 301 296 284 285 272 264 277 276 277 297 301 304 83 135 163 173 177 170 159 171 178 163 167 175 170 178 193 195 193
265 294 317 305 282 272 264 252 249 258 252 238 239 244 252 258 260 264 262 247 246 243 241 253 254 246 249 251 250 256 267 273 278 281 279 276 267 249 257 286 281 269 265 260 247 220 222 278 294 286 290 295 284 271 270 265 271 279 278 279 277 281 316 312 292 318 312 313 317 302 313 91 121 138 145 159 159 153 165 169 165 176 175 166 193 207 194 180
264 277 275 270 272 280 281 258 234 237 245 245 250 247 245 255 261 261 258 247 242 236 238 258 265 257 252 252 256 274 300 291 281 284 278 269 265 250 223 238 258 264 263 255 248 239 244 272 286 288 295 293 285 291 292 282 275 271 252 242 283 322 338 309 281 286 350 314 303 311 86 116 139 152 147 152 156 160 171 170 170 183 171 169 208 211 175 167